Weather in Novotroitskoye

Russia / Amur Oblast     50°29′51″N   127°33′22″E
temp.,
°C
wind,
m/s
gust,
m/s
humid.,
%
clouds,
%
prec.,
mm/h
press.,
hPa
HPBL,
m
11 may, tue
tue1100:00+7s2283100 0.0 101327
03:00+6s228998 0.0 101433
06:00+6sse24885 0.0 1014123
09:00+12sse455658 0.0 1014599
12:00+17sse5534100 0.0 10131554
15:00+18sse6632100 0.0 10112264
18:00+17se6841100 0.0 10101654
21:00+12se81457100 0.0 1010594
12 may, wed
wed1200:00+10se81566100 0.0 1008533
03:00+9se81674100 0.0 1006581
06:00+8se101876100 0.2 1003744
09:00+8se111988100 5.6 1000967
12:00+12se11176998 0.2 9981501
15:00+16sse81345100 1.1 9962366
18:00+13sse6961100 0.5 9961344
21:00+10sse2478100 0.8 997121
13 may, thu
thu1300:00+9e2487100 0.8 997189
03:00+9wnw1189100 1.6 99850
06:00+9wnw2686100 0.3 1000343
09:00+10wnw4885100 0.4 1002605
12:00+13wnw5764100 0.8 10031284
15:00+15nw6953100 1.2 10041878
18:00+14n455727 0.1 1005843
21:00+9ene348555 0.1 100669
14 may, fri
fri1400:00+7ese2291100 0.0 100719
03:00+7ese259298 0.0 100586
06:00+8se5118790 0.0 1003320
09:00+12s41062100 0.3 1001535
12:00+9wsw61284100 2.2 1002690
15:00+12sw4657100 6.6 1000745
18:00+11w8175673 0.1 9972022
21:00+9w8145862 0.1 9981316
15 may, sat
sat1500:00+8w81470100 0.1 9981325
03:00+7wnw81483100 0.1 9981183
06:00+7wnw91588100 0.2 10001180
09:00+7wnw81485100 0.4 1002962
12:00+8nw71176100 0.1 10041107
15:00+9nw61274100 0.1 10051274
18:00+13nnw61559100 0.0 10041731
21:00+10nw41173100 0.0 1006489